Date,TemperatureHighF,TemperatureAvgF,TemperatureLowF,DewpointHighF,DewpointAvgF,DewpointLowF,HumidityHigh,HumidityAvg,HumidityLow,PressureMaxIn,PressureMinIn,WindSpeedMaxMPH,WindSpeedAvgMPH,GustSpeedMaxMPH,PrecipitationSumIn
2012-1-24,44.0,41.2,38.0,44.0,41.2,37.0,100,100,100,29.84,29.70,10,1,16,0.00
2012-1-25,39.0,32.9,28.0,37.0,24.0,18.0,100,70,57,30.13,29.78,8,3,10,0.00
2012-1-27,46.0,39.6,33.0,46.0,38.8,32.0,99,97,96,29.91,29.20,9,5,0,0.00
2012-1-28,37.0,35.5,33.0,27.0,26.8,26.0,76,70,67,29.90,29.80,11,10,0,0.00
2012-1-30,32.0,25.6,21.0,13.0,6.0,2.0,52,43,35,30.25,30.03,10,6,0,0.00
2012-1-31,34.0,26.0,17.0,33.0,19.1,6.0,96,76,53,30.30,30.06,5,2,0,0.00
2012-2-1,41.0,35.4,29.0,40.0,34.4,27.0,98,96,95,30.06,29.73,6,2,0,0.00
2012-2-2,28.0,25.4,22.0,27.0,22.1,16.0,96,87,78,30.19,29.89,6,2,0,0.00
2012-2-3,29.0,22.6,16.0,16.0,12.4,10.0,81,66,46,30.30,30.18,9,3,0,0.00
2012-2-4,33.0,27.3,18.0,17.0,14.1,10.0,75,58,43,30.20,30.07,10,3,0,0.00
2012-2-5,30.0,24.4,17.0,10.0,6.9,4.0,70,48,34,30.14,29.96,6,3,0,0.00
2012-2-6,42.0,34.5,24.0,32.0,24.7,13.0,89,68,52,29.96,29.65,10,4,0,0.00
2012-2-7,44.0,33.6,20.0,29.0,20.8,5.0,90,60,40,30.20,29.80,11,4,0,0.00
2012-2-8,33.0,24.3,13.0,24.0,10.7,0.0,71,56,38,30.29,30.03,10,3,0,0.00
2012-2-9,41.0,31.7,24.0,24.0,17.1,11.0,81,57,30,30.05,29.90,4,0,0,0.00
2012-2-10,43.0,33.3,23.0,38.0,27.1,15.0,89,78,63,30.08,29.86,13,4,0,0.00
2012-2-11,40.0,31.8,17.0,34.0,28.2,12.0,96,87,67,29.85,29.43,11,4,0,0.00
2012-2-12,18.0,10.4,5.0,12.0,-0.7,-9.0,84,61,45,29.77,29.42,15,10,0,0.00
2012-2-13,29.0,19.5,6.0,9.0,4.6,-6.0,71,52,41,29.96,29.72,13,6,0,0.00
2012-2-14,40.0,30.0,16.0,30.0,22.5,9.0,87,74,58,30.12,29.96,9,2,0,0.00
2012-2-15,42.0,34.8,30.0,35.0,31.1,27.0,91,86,72,30.21,30.11,1,0,0,0.00
2012-2-16,40.0,34.4,31.0,34.0,30.7,28.0,95,87,71,30.25,30.06,0,0,0,0.00
2012-2-17,41.0,38.1,33.0,40.0,37.1,32.0,97,96,95,30.06,29.79,10,2,0,0.00
2012-2-18,44.0,35.6,31.0,32.0,25.0,19.0,95,68,42,29.86,29.74,12,5,0,0.00
2012-2-19,40.0,33.1,27.0,17.0,12.8,9.0,62,44,28,29.98,29.92,11,5,0,0.00
2012-2-20,34.0,26.7,20.0,16.0,10.9,7.0,69,52,34,30.22,29.97,9,4,0,0.00
2012-2-21,38.0,27.9,18.0,33.0,17.2,10.0,85,64,45,30.31,29.94,15,4,0,0.00
2012-2-22,46.0,39.9,34.0,41.0,36.6,32.0,96,88,77,29.93,29.52,12,3,0,0.00
2012-2-23,43.0,38.9,32.0,42.0,36.4,27.0,96,91,81,29.66,29.26,19,6,0,0.00
2012-2-24,40.0,35.0,29.0,36.0,30.0,26.0,95,82,66,29.81,29.27,8,2,0,0.00
2012-2-25,42.0,35.6,30.0,38.0,29.3,19.0,97,79,63,29.50,28.85,14,9,0,0.00
2012-2-26,35.0,28.0,21.0,20.0,10.2,2.0,65,48,26,30.38,29.48,18,10,0,0.00
2012-2-27,40.0,27.6,16.0,38.0,19.4,5.0,93,72,50,30.46,29.95,12,5,0,0.00
2012-2-28,40.0,29.0,21.0,38.0,21.9,14.0,94,75,55,30.37,29.93,10,-13,0,0.00
2012-2-29,35.0,26.1,15.0,20.0,14.5,9.0,88,64,35,30.38,30.12,9,2,0,0.00
2012-3-1,28.0,26.6,19.0,25.0,22.4,17.0,94,84,74,30.12,29.95,14,10,0,0.00
2012-3-2,32.0,23.4,15.0,26.0,19.6,12.0,91,85,76,30.15,30.04,8,2,0,0.00
2012-3-3,44.0,36.5,29.0,43.0,34.0,25.0,98,91,82,30.06,29.24,18,9,0,0.00
2012-3-4,41.0,35.4,28.0,36.0,30.0,25.0,98,81,66,29.63,29.45,4,1,0,0.00
2012-3-5,31.0,26.5,19.0,28.0,18.1,8.0,93,72,45,30.21,29.49,9,4,0,0.00
2012-3-6,32.0,20.7,16.0,13.0,9.2,7.0,72,61,40,30.55,30.21,12,4,0,0.00
2012-3-7,44.0,35.7,20.0,39.0,29.3,11.0,88,78,62,30.55,30.14,17,6,0,0.00
2012-3-8,54.0,47.9,42.0,45.0,42.0,36.0,88,80,72,30.14,29.64,23,14,0,0.00
2012-3-9,49.0,37.4,27.0,46.0,23.3,12.0,94,59,32,30.13,29.59,21,5,0,0.00
2012-3-10,38.0,29.0,25.0,20.0,14.3,7.0,70,56,29,30.48,30.13,4,0,0,0.00
2012-3-11,45.0,38.7,29.0,36.0,27.5,-99.9,90,67,53,30.48,30.18,16,7,0,0.00
2012-3-12,58.0,40.5,33.0,40.0,33.9,31.0,96,80,40,30.18,30.13,7,1,0,0.00
2012-3-13,47.0,42.6,38.0,43.0,39.3,33.0,96,88,77,30.14,29.93,7,-7,0,0.00
2012-3-14,38.0,35.0,32.0,37.0,34.0,31.0,97,96,96,30.24,30.01,9,5,0,0.00
2012-3-15,36.0,33.5,30.0,31.0,28.8,27.0,96,83,78,30.37,30.24,5,2,0,0.00
2012-3-16,36.0,33.9,32.0,34.0,29.9,25.0,96,86,66,30.35,30.11,3,0,0,0.00
2012-3-17,54.0,44.0,36.0,39.0,35.5,33.0,96,74,48,30.31,30.13,8,2,0,0.00
2012-3-18,53.0,45.5,35.0,43.0,40.5,33.0,93,83,68,30.29,30.06,11,5,0,0.00
2012-3-19,60.0,50.6,45.0,45.0,42.2,35.0,90,74,50,30.28,30.05,6,2,0,0.00
2012-3-20,61.0,52.7,46.0,46.0,43.6,42.0,88,72,58,30.26,30.19,4,1,0,0.00
2012-3-21,77.0,58.9,45.0,55.0,48.8,42.0,92,72,40,30.27,30.16,7,2,0,0.00
2012-3-22,75.0,58.0,48.0,53.0,46.7,-99.9,91,70,45,30.16,29.91,11,-6,0,0.00
2012-3-23,66.0,56.9,45.0,47.0,27.3,14.0,67,37,14,30.06,29.91,14,4,0,0.00
2012-3-24,53.0,41.5,34.0,35.0,21.4,10.0,81,48,18,30.18,30.05,8,1,0,0.00
2012-3-25,43.0,40.1,38.0,41.0,38.1,35.0,96,92,81,30.07,29.73,8,2,0,0.00
2012-3-26,39.0,34.4,26.0,38.0,25.0,8.0,97,72,41,29.85,29.56,16,8,0,0.00
2012-3-27,41.0,28.9,22.0,12.0,7.0,0.0,53,41,18,30.00,29.84,14,10,0,0.00
2012-3-28,39.0,34.3,31.0,33.0,17.8,8.0,96,52,36,30.09,29.65,9,2,0,0.00
2012-3-29,37.0,33.9,32.0,33.0,31.4,29.0,96,91,81,29.82,29.65,6,2,0,0.00
2012-3-30,41.0,33.5,30.0,31.0,27.1,23.0,93,78,49,29.91,29.80,11,5,0,0.00
2012-4-1,46.0,39.5,26.0,35.0,29.9,23.0,89,70,41,29.88,29.70,10,2,0,0.00
2012-4-2,46.0,39.3,34.0,35.0,30.2,20.0,85,71,56,29.72,29.64,4,1,0,0.00
2012-4-3,53.0,40.9,31.0,25.0,20.4,15.0,57,44,30,29.75,29.65,10,2,0,0.00
2012-4-4,54.0,44.1,36.0,32.0,26.3,22.0,63,50,33,29.67,29.41,10,3,0,0.00
2012-4-5,48.0,39.9,34.0,28.0,24.9,21.0,78,56,37,29.83,29.52,11,4,0,0.00
2012-4-6,45.0,37.4,28.0,31.0,24.3,20.0,82,60,39,29.93,29.83,11,3,0,0.00
2012-4-7,51.0,39.3,32.0,26.0,22.1,20.0,74,51,32,29.96,29.91,5,2,0,0.00
2012-4-8,39.0,36.9,32.0,37.0,30.1,23.0,93,77,52,29.93,29.56,8,3,0,0.00
2012-4-9,47.0,41.8,38.0,43.0,39.2,36.0,94,90,78,29.56,29.41,9,2,0,0.00
2012-4-10,51.0,44.2,36.0,39.0,36.9,32.0,91,76,59,29.74,29.53,12,4,0,0.00
2012-4-11,55.0,43.1,33.0,44.0,38.0,31.0,96,83,61,29.87,29.73,7,1,0,0.00
2012-4-12,51.0,45.5,40.0,41.0,39.1,37.0,92,79,64,30.06,29.84,7,2,0,0.00
2012-4-13,55.0,44.6,36.0,42.0,35.8,30.0,96,74,45,30.11,29.97,13,3,0,0.00
2012-4-14,62.0,51.4,39.0,38.0,32.0,23.0,83,52,27,30.06,29.94,12,5,0,0.00
2012-4-15,56.0,46.2,42.0,47.0,39.9,-99.9,94,82,71,30.01,29.91,10,2,0,0.00
2012-4-16,55.0,48.2,42.0,50.0,45.1,40.0,97,89,76,30.06,29.95,6,1,0,0.00
2012-4-17,56.0,48.7,44.0,51.0,46.2,38.0,98,92,58,30.07,29.92,6,1,0,0.00
2012-4-18,60.0,50.7,39.0,40.0,34.0,30.0,85,54,36,30.21,30.06,7,2,0,0.00
2012-4-19,52.0,43.6,35.0,42.0,38.5,31.0,97,83,62,30.15,30.03,10,3,0,0.00
2012-4-20,56.0,47.6,39.0,49.0,43.9,38.0,98,88,74,30.04,29.95,12,4,0,0.00
2012-4-21,51.0,47.5,46.0,50.0,45.4,41.0,99,93,80,29.95,29.78,8,2,0,0.00
2012-4-22,50.0,43.5,38.0,50.0,42.1,-99.9,99,99,97,29.96,29.74,8,2,0,0.00
2012-4-23,52.0,45.8,38.0,52.0,45.6,37.0,99,99,97,29.91,29.47,18,11,0,0.00
2012-4-24,51.0,46.7,44.0,49.0,45.1,42.0,99,94,78,29.77,29.47,14,6,0,0.00
2012-4-25,52.0,47.5,42.0,46.0,41.9,38.0,92,81,74,29.83,29.76,11,3,0,0.00
2012-4-26,55.0,46.2,38.0,43.0,38.8,34.0,91,77,45,29.91,29.71,15,3,0,0.00
2012-4-27,50.0,45.5,37.0,49.0,41.0,28.0,97,85,62,29.78,29.36,15,5,0,0.00
2012-4-28,49.0,40.3,33.0,28.0,20.6,17.0,69,47,29,30.05,29.78,14,8,0,0.00
2012-4-29,53.0,42.0,33.0,25.0,16.6,-99.9,62,38,21,30.11,29.91,11,4,0,0.00
2012-4-30,57.0,43.5,31.0,38.0,27.2,15.0,84,54,32,30.26,30.11,9,2,0,0.00
2012-5-1,46.0,42.1,40.0,42.0,39.6,37.0,96,91,71,30.28,30.22,13,4,0,0.00
2012-5-2,45.0,42.3,40.0,43.0,40.6,39.0,97,94,89,30.29,30.19,3,1,0,0.00
2012-5-3,54.0,46.8,42.0,45.0,42.0,38.0,96,84,70,30.25,30.10,6,2,0,0.00
2012-5-4,47.0,45.0,43.0,46.0,43.8,41.0,97,95,89,30.10,30.00,3,0,0,0.00
2012-5-5,53.0,46.1,41.0,51.0,45.1,40.0,98,98,97,30.09,29.97,6,1,0,0.00
2012-5-6,63.0,47.5,39.0,43.0,38.3,-99.9,98,76,34,30.14,30.05,6,1,0,0.00
2012-5-7,59.0,46.2,37.0,45.0,38.6,32.0,93,76,43,30.16,30.09,12,2,0,0.00
2012-5-8,51.0,44.2,37.0,46.0,42.0,35.0,97,92,83,30.15,29.96,17,4,0,0.00
2012-5-9,51.0,48.0,46.0,50.0,47.3,45.0,99,98,96,29.96,29.66,18,6,0,0.00
2012-5-10,57.0,50.7,47.0,57.0,50.1,46.0,99,97,88,29.67,29.26,16,5,0,0.00
2012-5-11,60.0,51.9,44.0,49.0,44.7,41.0,97,78,50,30.01,29.57,10,-40,0,0.00
2012-5-12,67.0,54.9,44.0,45.0,40.4,32.0,93,62,27,30.18,29.98,9,-29,0,0.00
2012-5-13,59.0,50.2,43.0,50.0,43.2,-99.9,93,79,63,30.21,30.13,4,-77,0,0.00
2012-5-14,54.0,49.4,46.0,49.0,47.0,44.0,96,91,82,30.22,30.15,5,1,0,0.00
2012-5-15,61.0,52.4,47.0,53.0,49.7,46.0,97,91,74,30.23,30.13,10,2,0,0.00
2012-5-16,55.0,46.4,50.0,54.0,35.9,-99.9,99,88,96,30.13,29.87,14,4,0,0.00
2012-5-17,66.0,57.1,45.0,58.0,44.8,32.0,99,69,30,30.15,29.82,9,3,0,0.00
2012-5-18,64.0,52.8,39.0,45.0,39.0,36.0,94,62,37,30.26,30.15,13,2,0,0.00
2012-5-19,68.0,55.7,43.0,52.0,45.2,39.0,91,69,47,30.21,30.13,11,2,0,0.00
2012-5-20,69.0,56.6,46.0,53.0,46.7,-99.9,92,72,51,30.33,30.18,9,1,0,0.00
2012-5-21,65.0,55.3,46.0,55.0,49.5,42.0,95,82,60,30.36,30.16,8,1,0,0.00
2012-5-22,65.0,52.6,53.0,64.0,45.6,-99.9,98,90,86,30.16,29.87,4,0,0,0.00
2012-5-23,72.0,63.7,53.0,68.0,60.0,51.0,98,89,73,30.11,29.84,8,1,0,0.00
2012-5-24,56.0,53.4,52.0,53.0,50.7,49.0,97,91,82,30.35,30.12,5,1,0,0.00
2012-5-25,55.0,51.2,50.0,54.0,47.7,-99.9,98,96,97,30.35,30.14,8,2,0,0.00
2012-5-26,77.0,62.6,54.0,67.0,59.2,51.0,99,89,64,30.13,30.01,8,1,0,0.00
2012-5-27,70.0,58.7,50.0,51.0,45.4,38.0,87,63,32,30.21,30.08,8,2,0,0.00
2012-5-28,64.0,56.9,52.0,56.0,52.4,50.0,95,85,67,30.08,30.01,9,1,0,0.00
2012-5-29,54.0,49.9,49.0,53.0,44.9,-99.9,98,91,87,30.05,29.82,11,1,0,0.00
2012-5-30,59.0,50.8,50.0,57.0,45.5,-99.9,98,93,92,29.82,29.71,6,1,0,0.00
2012-5-31,56.0,52.7,51.0,55.0,51.5,50.0,98,97,91,29.92,29.75,2,0,0,0.00
2012-6-1,72.0,57.9,50.0,53.0,49.0,45.0,98,75,38,30.10,29.92,8,1,0,0.00
2012-6-2,60.0,53.6,49.0,51.0,48.3,46.0,93,82,69,30.10,29.93,4,1,0,0.00
2012-6-3,52.0,50.0,49.0,50.0,47.7,-99.9,98,94,85,29.92,29.68,8,4,0,0.00
2012-6-4,54.0,50.2,48.0,51.0,48.5,46.0,97,94,83,29.81,29.66,6,-76,0,0.00
2012-6-5,58.0,50.8,46.0,52.0,47.7,44.0,94,90,78,29.93,29.79,2,-7,0,0.00
2012-6-6,64.0,53.3,48.0,51.0,47.8,44.0,95,82,62,30.01,29.93,5,0,0,0.00
2012-6-7,58.0,46.0,48.0,50.0,27.9,-99.9,96,73,70,30.01,29.94,4,1,0,0.00
2012-6-8,58.0,46.7,46.0,54.0,37.0,-99.9,98,87,81,29.95,29.76,6,1,0,0.00
2012-6-9,75.0,44.2,51.0,58.0,-0.4,-99.9,98,39,31,29.91,29.74,9,2,0,0.00
2012-6-10,72.0,58.8,48.0,58.0,50.1,-99.9,93,76,54,30.27,29.91,5,1,0,0.00
2012-6-11,65.0,55.8,47.0,57.0,51.8,46.0,97,87,71,30.35,30.24,9,2,0,0.00
2012-6-12,62.0,57.8,54.0,55.0,52.5,50.0,90,83,75,30.24,30.03,12,-178,0,0.00
2012-6-13,60.0,54.6,54.0,57.0,46.4,-99.9,98,90,88,30.11,29.99,6,-880,0,0.00
2012-6-14,75.0,64.8,55.0,57.0,50.8,45.0,98,64,38,30.27,30.10,2,-499,0,0.00
2012-6-15,74.0,63.8,53.0,58.0,51.8,45.0,79,66,48,30.34,30.26,2,-491,0,0.00
2012-6-16,64.0,56.6,48.0,54.0,49.8,45.0,91,79,59,30.42,30.32,3,-367,0,0.00
2012-6-17,63.0,52.8,44.0,55.0,45.0,-99.9,96,81,59,30.32,30.19,7,2,0,0.00
2012-6-18,60.0,54.0,47.0,53.0,49.3,44.0,93,84,73,30.23,30.17,7,2,0,0.00
2012-6-19,64.0,52.0,48.0,58.0,44.2,-99.9,97,87,80,30.19,30.03,9,2,0,0.00
2012-6-20,87.0,70.6,55.0,70.0,62.9,54.0,98,79,55,30.03,29.79,3,1,0,0.00
2012-6-21,75.0,64.0,62.0,65.0,45.3,-99.9,93,65,51,29.83,29.76,8,1,0,0.00
2012-6-22,72.0,63.1,58.0,61.0,56.2,53.0,95,79,63,29.81,29.75,4,0,0,0.00
2012-6-23,63.0,51.7,56.0,62.0,32.3,-99.9,98,81,94,29.88,29.77,5,1,0,0.00
2012-6-24,77.0,65.2,57.0,66.0,60.0,53.0,97,84,61,29.87,29.81,7,2,0,0.00
2012-6-25,65.0,59.5,56.0,60.0,56.7,52.0,97,91,83,29.86,29.74,7,2,0,0.00
2012-6-26,71.0,61.0,56.0,66.0,58.7,55.0,98,92,75,29.74,29.47,7,2,0,0.00
2012-6-27,62.0,58.9,56.0,61.0,56.4,53.0,96,91,84,29.62,29.47,8,4,0,0.00
2012-6-28,75.0,64.2,55.0,64.0,58.1,54.0,96,82,62,29.70,29.61,9,1,0,0.00
2012-6-29,74.0,61.8,54.0,63.0,58.0,52.0,96,88,65,29.70,29.56,8,2,0,0.00
2012-6-30,83.0,70.8,56.0,70.0,60.2,55.0,97,71,49,29.67,29.55,7,2,0,0.00
2012-7-1,81.0,69.6,59.0,64.0,60.4,56.0,91,74,55,29.78,29.67,7,-26,0,0.00
2012-7-2,79.0,68.0,61.0,66.0,60.8,59.0,94,79,50,29.84,29.78,9,1,0,0.00
2012-7-3,76.0,67.1,58.0,63.0,59.4,55.0,95,77,58,29.87,29.81,7,2,0,0.00
2012-7-4,65.0,61.9,59.0,63.0,60.2,58.0,96,94,88,29.77,29.70,5,1,0,0.00
2012-7-5,73.0,64.4,58.0,70.0,62.0,57.0,97,92,82,29.84,29.66,6,0,0,0.00
2012-7-6,78.0,67.6,60.0,68.0,62.7,59.0,96,85,66,29.89,29.80,8,1,0,0.00
2012-7-7,85.0,72.1,61.0,73.0,63.7,59.0,97,77,46,29.81,29.63,4,1,0,0.00
2012-7-8,80.0,71.7,61.0,62.0,54.8,49.0,86,57,38,29.83,29.71,8,2,0,0.00
2012-7-9,78.0,67.3,55.0,55.0,50.7,45.0,84,57,37,29.96,29.83,5,1,0,0.00
2012-7-10,78.0,65.8,51.0,57.0,50.8,45.0,84,61,35,30.08,29.95,9,2,0,0.00
2012-7-11,75.0,66.9,57.0,59.0,55.5,51.0,91,68,53,30.21,30.07,8,2,0,0.00
2012-7-12,76.0,65.7,58.0,66.0,58.3,53.0,97,79,53,30.21,30.13,11,3,0,0.00
2012-7-13,83.0,73.2,64.0,67.0,63.1,60.0,86,71,54,30.18,30.14,8,2,0,0.00
2012-7-14,86.0,71.7,61.0,68.0,63.6,58.0,93,77,53,30.16,30.03,3,0,0,0.00
2012-7-15,67.0,63.9,61.0,65.0,60.5,59.0,96,89,79,30.14,29.94,6,1,0,0.00
2012-7-16,75.0,64.3,60.0,67.0,61.7,59.0,97,91,75,29.94,29.77,4,1,0,0.00
2012-7-17,66.0,63.6,61.0,65.0,62.6,60.0,97,96,94,29.81,29.62,3,0,0,0.00
2012-7-18,84.0,72.8,65.0,69.0,63.7,53.0,96,75,47,29.92,29.62,5,2,0,0.00
2012-7-19,75.0,66.9,58.0,54.0,50.5,47.0,82,58,38,30.04,29.92,6,2,0,0.00
2012-7-20,74.0,62.6,52.0,57.0,52.0,48.0,89,70,48,30.11,30.04,8,1,0,0.00
2012-7-21,72.0,62.5,52.0,59.0,55.1,49.0,94,78,58,30.14,30.09,9,2,0,0.00
2012-7-22,76.0,68.2,56.0,64.0,60.2,54.0,94,77,62,30.14,30.10,7,2,0,0.00
2012-7-23,75.0,66.3,61.0,65.0,61.5,58.0,96,85,71,30.11,29.83,8,4,0,0.00
2012-7-24,67.0,63.1,61.0,66.0,62.1,60.0,97,97,96,29.83,29.61,15,5,0,0.00
2012-8-2,68.0,64.7,62.0,65.0,63.2,61.0,97,95,87,29.93,29.88,4,1,0,0.00
2012-8-3,79.0,64.5,61.0,72.0,63.0,60.0,98,96,75,29.98,29.91,6,0,0,0.00
2012-8-5,68.0,64.8,63.0,66.0,63.6,62.0,98,96,91,30.25,29.95,9,4,0,0.00
2012-8-6,84.0,73.4,65.0,72.0,63.2,57.0,98,74,45,29.97,29.87,8,2,0,0.00
2012-8-7,76.0,66.8,58.0,61.0,56.9,54.0,92,72,53,30.01,29.97,9,2,0,0.00
2012-8-8,74.0,64.7,55.0,66.0,61.0,54.0,96,88,74,30.00,29.98,8,2,0,0.00
2012-8-9,75.0,66.2,62.0,67.0,63.5,61.0,97,91,74,30.01,29.96,8,1,0,0.00
2012-8-10,67.0,64.4,61.0,64.0,62.7,60.0,97,94,89,30.04,29.98,4,-14,0,0.00
2012-8-11,68.0,63.1,62.0,67.0,59.8,-99.9,98,94,93,30.00,29.88,4,1,0,0.00
2012-8-12,70.0,64.5,63.0,69.0,62.7,-99.9,98,97,97,30.00,29.92,9,2,0,0.00
2012-8-13,79.0,67.9,63.0,74.0,65.2,61.0,98,92,74,29.94,29.89,9,2,0,0.00
2012-8-14,76.0,68.7,61.0,71.0,64.7,60.0,97,88,74,29.93,29.90,10,1,0,0.00
2012-8-15,81.0,68.1,61.0,69.0,64.2,59.0,97,88,62,29.94,29.90,6,1,0,0.00
2012-8-16,66.0,63.8,62.0,65.0,62.8,61.0,98,97,96,29.94,29.71,7,1,0,0.00
2012-8-17,77.0,68.3,62.0,68.0,63.0,61.0,97,85,61,29.81,29.73,7,1,0,0.00
2012-8-18,77.0,69.0,63.0,68.0,64.5,61.0,96,86,66,29.92,29.78,1,0,0,0.00
2012-8-19,77.0,65.3,58.0,66.0,60.9,56.0,96,86,60,29.96,29.90,5,0,0,0.00
2012-8-20,76.0,65.8,56.0,65.0,59.0,54.0,96,80,54,29.93,29.87,8,1,0,0.00
2012-8-21,75.0,65.1,57.0,65.0,60.0,56.0,96,84,65,30.09,29.90,6,1,0,0.00
2012-8-22,73.0,63.6,57.0,63.0,59.0,55.0,95,86,58,30.16,30.09,7,1,0,0.00
2012-8-23,79.0,66.0,56.0,68.0,60.6,55.0,97,84,58,30.14,30.06,9,1,0,0.00
2012-8-24,77.0,66.1,57.0,65.0,59.3,54.0,95,80,59,30.27,30.10,9,2,0,0.00
2012-8-25,75.0,63.4,54.0,65.0,59.6,53.0,96,88,65,30.38,30.27,4,1,0,0.00
2012-8-26,73.0,64.0,56.0,64.0,60.1,55.0,97,88,68,30.37,30.24,11,2,0,0.00
2012-8-27,75.0,65.0,56.0,66.0,59.0,-99.9,97,85,72,30.23,29.93,10,3,0,0.00
2012-8-28,77.0,59.8,61.0,71.0,34.2,-99.9,96,73,65,29.93,29.67,6,2,0,0.00
2012-8-29,75.0,56.8,53.0,57.0,31.4,-99.9,82,54,41,29.91,29.82,6,2,0,0.00
2012-8-30,75.0,65.0,56.0,59.0,55.2,51.0,88,72,46,29.95,29.87,5,1,0,0.00
2012-8-31,77.0,65.8,63.0,65.0,52.2,-99.9,92,73,57,29.87,29.73,4,1,0,0.00
2012-9-1,77.0,61.3,52.0,63.0,47.0,-99.9,93,69,39,30.14,29.83,7,1,0,0.00
2012-9-2,65.0,56.6,48.0,60.0,54.3,47.0,96,92,76,30.21,30.14,3,0,0,0.00
2012-9-3,69.0,58.8,49.0,60.0,55.5,48.0,98,89,70,30.25,30.19,7,1,0,0.00
2012-9-4,72.0,61.8,52.0,63.0,58.6,51.0,97,89,72,30.19,29.99,8,1,0,0.00
2012-9-5,69.0,63.7,58.0,68.0,62.4,57.0,97,95,91,29.98,29.66,18,3,0,0.00
2012-9-6,72.0,63.9,57.0,62.0,58.9,55.0,95,85,66,29.91,29.84,3,0,0,0.00
2012-9-7,65.0,53.9,56.0,63.0,42.1,-99.9,96,84,90,29.97,29.90,1,0,0,0.00
2012-9-8,69.0,63.4,60.0,66.0,62.0,59.0,98,95,86,29.96,29.70,12,4,0,0.00
2012-9-9,67.0,63.5,58.0,66.0,60.5,56.0,97,90,77,29.87,29.68,12,1,0,0.00
2012-9-10,69.0,59.4,52.0,56.0,50.5,-99.9,91,75,58,29.93,29.82,7,2,0,0.00
2012-9-11,70.0,59.0,50.0,55.0,48.5,44.0,92,70,45,30.25,29.93,5,2,0,0.00
2012-9-12,71.0,58.6,47.0,57.0,51.6,46.0,97,80,48,30.36,30.25,7,1,0,0.00
2012-9-13,74.0,61.6,51.0,65.0,58.1,49.0,97,89,69,30.36,30.28,8,2,0,0.00
2012-9-14,69.0,62.2,54.0,66.0,60.3,53.0,97,93,83,30.28,30.12,9,2,0,0.00
2012-9-15,67.0,61.6,50.0,63.0,57.9,44.0,96,88,67,30.12,29.91,8,3,0,0.00
2012-9-16,64.0,54.3,46.0,45.0,42.8,39.0,91,67,41,30.02,29.93,7,2,0,0.00
2012-9-17,67.0,54.4,42.0,50.0,44.8,38.0,94,72,44,30.11,30.02,7,1,0,0.00
2012-9-18,67.0,58.9,50.0,60.0,55.9,49.0,97,90,79,30.11,29.88,14,5,0,0.00
2012-9-19,66.0,61.4,51.0,64.0,56.3,42.0,97,84,59,30.23,29.78,18,6,0,0.00
2012-9-20,63.0,53.0,45.0,50.0,45.0,41.0,94,75,51,30.30,30.19,5,1,0,0.00
2012-9-21,58.0,54.7,49.0,55.0,52.2,47.0,96,91,83,30.21,30.11,1,0,0,0.00
2012-9-22,68.0,60.5,55.0,66.0,59.2,54.0,97,96,88,30.11,29.88,3,0,0,0.00
2012-9-23,72.0,61.1,51.0,65.0,54.1,-99.9,98,82,50,30.06,29.83,7,2,0,0.00
2012-9-24,64.0,49.4,44.0,49.0,35.3,-99.9,91,70,43,30.14,30.05,4,1,0,0.00
2012-9-25,65.0,56.8,44.0,56.0,49.7,42.0,95,78,56,30.16,30.09,15,4,0,0.00
2012-9-26,63.0,61.0,59.0,60.0,57.5,54.0,93,88,82,30.15,29.99,11,6,0,0.00
2012-9-27,64.0,56.9,44.0,60.0,47.9,40.0,96,74,47,30.27,29.96,5,1,0,0.00
2012-9-28,59.0,51.5,42.0,51.0,45.9,39.0,93,82,68,30.29,30.16,8,2,0,0.00
2012-9-29,60.0,55.3,50.0,59.0,54.2,48.0,97,96,93,30.16,29.87,8,2,0,0.00
2012-9-30,62.0,58.3,56.0,61.0,57.3,55.0,98,98,96,29.94,29.61,6,1,0,0.00
2012-10-1,62.0,57.3,55.0,56.0,53.7,52.0,96,88,76,29.87,29.66,9,4,0,0.00
2012-10-2,70.0,60.0,53.0,57.0,54.4,51.0,94,83,59,30.06,29.87,4,1,0,0.00
2012-10-3,69.0,58.9,55.0,60.0,49.7,-99.9,96,80,61,30.19,30.06,2,0,0,0.00
2012-10-4,60.0,57.1,53.0,57.0,53.5,52.0,96,88,78,30.23,30.07,5,1,0,0.00
2012-10-5,60.0,56.1,53.0,57.0,54.7,52.0,97,95,90,30.07,29.94,6,2,0,0.00
2012-10-6,64.0,58.9,54.0,61.0,57.4,52.0,98,95,88,29.94,29.71,14,5,0,0.00
2012-10-7,59.0,43.3,43.0,52.0,15.8,-99.9,96,66,59,30.06,29.85,2,0,0,0.00
2012-10-8,56.0,43.5,42.0,49.0,24.2,-99.9,96,73,54,30.38,30.00,4,1,0,0.00
2012-10-9,56.0,50.4,43.0,46.0,41.8,38.0,95,73,58,30.40,30.19,4,1,0,0.00
2012-10-10,59.0,51.2,48.0,58.0,45.5,-99.9,98,90,83,30.19,29.62,15,2,0,0.00
2012-10-11,58.0,50.3,41.0,57.0,38.6,27.0,97,66,35,30.09,29.60,13,4,0,0.00
2012-10-12,55.0,48.1,38.0,46.0,36.1,25.0,86,63,47,30.25,29.93,9,4,0,0.00
2012-10-13,49.0,40.0,33.0,31.0,26.6,23.0,81,59,41,30.39,30.25,7,2,0,0.00
2012-10-14,53.0,47.9,37.0,52.0,44.5,30.0,96,88,54,30.33,30.00,10,2,0,0.00
2012-10-15,66.0,59.7,51.0,60.0,57.1,50.0,97,91,80,29.98,29.65,18,8,0,0.00
2012-10-16,62.0,43.0,40.0,60.0,25.8,-99.9,97,77,80,29.81,29.45,10,2,0,0.00
2012-10-17,58.0,45.0,34.0,39.0,35.5,31.0,93,72,37,30.02,29.81,5,1,0,0.00
2012-10-18,59.0,49.6,39.0,52.0,46.2,37.0,97,88,72,30.22,30.02,7,1,0,0.00
2012-10-19,60.0,55.9,52.0,58.0,53.5,50.0,95,91,84,30.21,29.90,14,2,0,0.00
2012-10-20,63.0,59.2,57.0,62.0,58.2,55.0,98,97,95,29.90,29.67,14,5,0,0.00
2012-10-21,61.0,54.6,48.0,55.0,49.6,42.0,99,85,64,29.78,29.67,5,1,0,0.00
2012-10-22,59.0,52.4,47.0,45.0,41.4,37.0,78,67,48,29.91,29.75,10,3,0,0.00
2012-10-23,57.0,48.5,43.0,38.0,35.6,33.0,73,62,45,30.12,29.91,8,2,0,0.00
2012-10-24,57.0,44.8,32.0,41.0,34.6,28.0,90,69,39,30.24,30.12,3,0,0,0.00
2012-10-25,54.0,43.2,33.0,37.0,32.0,26.0,91,66,46,30.37,30.24,6,1,0,0.00
2012-10-26,57.0,45.4,36.0,51.0,35.8,-99.9,97,83,71,30.29,30.16,9,1,0,0.00
2012-10-27,62.0,51.1,45.0,55.0,46.6,41.0,98,86,57,30.16,30.07,4,0,0,0.00
2012-10-28,58.0,52.0,49.0,51.0,48.6,47.0,95,88,74,30.10,29.95,8,3,0,0.00
2012-10-29,58.0,54.9,51.0,55.0,53.2,50.0,97,94,86,29.95,29.69,15,9,0,0.00
2012-10-30,61.0,57.3,55.0,60.0,53.1,-99.9,98,94,97,29.79,29.66,15,6,0,0.00
2012-10-31,59.0,36.0,52.0,58.0,-9.4,-99.9,98,57,96,29.69,29.54,8,2,0,0.00
2012-11-1,56.0,51.0,46.0,52.0,47.5,40.0,96,88,72,29.59,29.52,7,1,0,0.00
2012-11-2,54.0,48.6,44.0,48.0,43.6,40.0,95,83,67,29.54,29.51,8,1,0,0.00
2012-11-3,53.0,47.2,44.0,45.0,39.9,36.0,90,76,63,29.68,29.54,6,3,0,0.00
2012-11-4,51.0,44.6,37.0,39.0,35.9,29.0,82,72,57,29.91,29.68,7,3,0,0.00
2012-11-5,40.0,36.3,31.0,30.0,28.0,19.0,78,72,62,30.07,29.91,4,1,0,0.00
2012-11-6,40.0,31.7,26.0,22.0,18.7,16.0,81,60,40,30.28,30.07,5,1,0,0.00
2012-11-7,40.0,34.9,26.0,33.0,24.1,20.0,95,66,46,30.29,29.89,9,5,0,0.00
2012-11-8,42.0,39.1,35.0,41.0,37.9,34.0,97,95,93,29.89,29.66,12,6,0,0.00
2012-11-9,47.0,39.7,35.0,38.0,34.7,29.0,96,83,68,30.02,29.66,8,4,0,0.00
2012-11-10,48.0,38.2,28.0,33.0,25.8,18.0,84,63,37,30.50,30.00,10,2,0,0.00
2012-11-11,52.0,42.8,27.0,50.0,36.4,21.0,94,79,64,30.56,30.45,11,4,0,0.00
2012-11-12,62.0,51.9,50.0,54.0,39.7,-99.9,96,83,71,30.47,30.32,13,5,0,0.00
2012-11-13,59.0,50.9,39.0,57.0,49.1,35.0,95,93,89,30.41,30.15,17,6,0,0.00
2012-11-14,47.0,37.3,33.0,35.0,30.0,-99.9,87,77,58,30.54,30.41,4,1,0,0.00
2012-11-15,43.0,37.5,32.0,34.0,31.8,29.0,89,80,67,30.50,30.31,7,2,0,0.00
2012-11-16,43.0,36.9,33.0,32.0,30.1,28.0,84,77,61,30.41,30.27,3,1,0,0.00
2012-11-17,43.0,34.6,28.0,31.0,26.0,20.0,89,72,49,30.70,30.41,5,1,0,0.00
2012-11-18,45.0,32.9,26.0,28.0,23.7,19.0,88,70,40,30.76,30.68,4,0,0,0.00
2012-11-19,50.0,36.6,29.0,39.0,31.5,26.0,95,83,60,30.68,30.29,2,0,0,0.00
2012-11-20,51.0,37.3,29.0,35.0,30.6,28.0,96,79,41,30.29,30.16,5,1,0,0.00
2012-11-21,49.0,41.5,34.0,42.0,36.9,32.0,95,84,64,30.29,30.19,6,2,0,0.00
2012-11-22,51.0,37.4,32.0,44.0,24.5,-99.9,96,79,71,30.29,30.14,7,2,0,0.00
2012-11-23,53.0,48.1,43.0,47.0,44.2,41.0,94,86,74,30.14,29.70,12,5,0,0.00
2012-11-24,52.0,45.3,33.0,48.0,38.9,20.0,88,78,58,29.69,29.38,12,5,0,0.00
2012-11-25,36.0,31.7,28.0,22.0,15.3,11.0,65,51,40,29.75,29.45,16,10,0,0.00
2012-11-26,42.0,32.5,27.0,23.0,16.7,11.0,58,52,41,30.24,29.75,12,6,0,0.00
2012-11-27,35.0,28.8,20.0,28.0,18.0,13.0,81,64,43,30.36,30.23,3,0,0,0.00
2012-11-28,36.0,32.4,27.0,25.0,22.2,19.0,74,66,56,30.29,30.11,5,2,0,0.00
2012-11-29,41.0,32.5,24.0,28.0,19.9,12.0,83,61,36,30.15,30.04,13,4,0,0.00
2012-11-30,31.0,22.4,16.0,20.0,7.0,3.0,64,52,35,30.62,30.15,11,4,0,0.00
2012-12-1,41.0,26.0,15.0,35.0,17.2,8.0,90,69,49,30.72,30.58,15,4,0,0.00
2012-12-2,53.0,47.5,41.0,52.0,44.3,34.0,96,88,76,30.58,29.99,21,16,0,0.00
2012-12-3,53.0,44.5,31.0,48.0,40.3,29.0,95,86,68,30.33,29.96,15,3,0,0.00
2012-12-4,50.0,41.2,30.0,48.0,38.5,28.0,97,90,79,30.36,30.03,15,5,0,0.00
2012-12-5,54.0,47.0,33.0,52.0,41.4,21.0,95,81,60,30.03,29.78,15,8,0,0.00
2012-12-6,35.0,29.5,23.0,21.0,16.1,-99.9,78,60,48,30.32,30.01,12,4,0,0.00
2012-12-7,46.0,36.1,21.0,43.0,30.0,16.0,95,79,66,30.32,30.06,10,3,0,0.00
2012-12-8,45.0,42.5,40.0,44.0,41.5,39.0,98,96,95,30.06,29.85,2,0,0,0.00
2012-12-9,45.0,38.3,31.0,41.0,32.9,26.0,98,82,58,30.37,29.88,10,2,0,0.00
2012-12-10,51.0,44.5,34.0,50.0,42.5,27.0,98,93,76,30.29,29.47,9,2,0,0.00
2012-12-11,47.0,36.7,26.0,46.0,33.5,21.0,98,88,76,30.12,29.48,6,2,0,0.00
2012-12-12,36.0,26.2,21.0,22.0,19.4,16.0,91,76,50,30.41,30.12,3,0,0,0.00
2012-12-13,42.0,31.6,23.0,29.0,24.5,21.0,93,76,50,30.46,30.28,1,0,0,0.00
2012-12-14,45.0,36.8,30.0,34.0,28.7,25.0,84,73,61,30.28,29.98,9,1,0,0.00
2012-12-15,34.0,24.0,15.0,28.0,12.0,4.0,82,60,43,30.40,30.09,8,3,0,0.00
2012-12-16,25.0,19.0,12.0,16.0,7.3,3.0,70,60,44,30.41,30.25,6,1,0,0.00
2012-12-17,43.0,35.1,25.0,38.0,29.1,16.0,91,79,66,30.25,30.00,7,4,0,0.00
2012-12-18,45.0,43.6,43.0,44.0,41.4,38.0,97,92,80,30.00,29.44,10,6,0,0.00
2012-12-19,45.0,38.8,34.0,44.0,37.6,32.0,98,96,93,29.98,29.41,11,6,0,0.00
2012-12-20,38.0,31.6,30.0,33.0,24.2,-99.9,95,84,77,30.21,29.98,4,1,0,0.00
2012-12-21,50.0,42.6,33.0,49.0,39.8,30.0,96,90,81,30.12,29.20,18,8,0,0.00
2012-12-22,46.0,38.5,28.0,42.0,35.6,24.0,93,89,74,29.47,29.20,21,6,0,0.00
2012-12-23,33.0,27.8,22.0,24.0,16.5,12.0,88,63,49,29.78,29.47,11,6,0,0.00
2012-12-24,34.0,28.8,24.0,25.0,16.9,12.0,73,61,45,30.08,29.76,11,4,0,0.00
2012-12-25,31.0,26.1,18.0,19.0,16.2,12.0,82,66,55,30.19,30.03,4,1,0,0.00
2012-12-26,32.0,23.5,17.0,23.0,15.3,11.0,80,71,55,30.35,30.19,6,2,0,0.00
2012-12-27,38.0,33.7,28.0,35.0,31.8,23.0,97,93,79,30.19,29.40,18,10,0,0.00
2012-12-28,32.0,27.5,23.0,28.0,23.5,17.0,96,85,74,29.94,29.41,12,7,0,0.00
2012-12-29,29.0,24.1,15.0,28.0,20.3,12.0,95,85,72,30.01,29.44,10,2,0,0.00
2012-12-30,28.0,21.8,14.0,27.0,18.7,7.0,95,87,72,29.67,29.26,17,11,0,0.00
2012-12-31,32.0,22.0,14.0,21.0,12.0,5.0,72,65,51,29.85,29.67,17,8,0,0.00
2013-1-1,33.0,23.3,12.0,27.0,-3.5,-99.9,81,52,43,29.80,29.58,15,7,0,0.00